When you browse on this site, cookies collect data to enhance your experience and personalize the content and advertising you see.
Visit our Privacy Policy to learn more. By continuing to use the site, you agree to this use of cookies and data.
  • In Hungary
  • List of Countries
  • For 7 days
  • Water Temperature
  • Satellite Maps
  • Weather Map
  • News
  • Weather Widgets
  • user-avatar
    Login

    Hourly Weather Kapuvar

    Today, 27 June, Thursday

    Time Temperature Precipitation Wind Pressure Humidity
    00:00 +25°C° 0 mm 3 mps 755 mmHg 79%
    01:00 +25°C° 0 mm 3 mps 755 mmHg 82%
    02:00 +24°C° 0 mm 3 mps 754 mmHg 82%
    03:00 +24°C° 0 mm 2 mps 754 mmHg 82%
    04:00 +24°C° 0 mm 2 mps 754 mmHg 82%
    05:00 +26°C° 0 mm 2 mps 754 mmHg 77%
    06:00 +28°C° 0 mm 1 mps 754 mmHg 71%
    07:00 +29°C° 0 mm 1 mps 754 mmHg 66%
    08:00 +30°C° 0.1 mm 3 mps 753 mmHg 64%
    09:00 +32°C° 0.1 mm 4 mps 753 mmHg 61%
    10:00 +34°C° 0.1 mm 6 mps 753 mmHg 59%
    11:00 +34°C° 0 mm 6 mps 753 mmHg 57%
    12:00 +35°C° 0 mm 7 mps 753 mmHg 54%
    13:00 +35°C° 0 mm 7 mps 753 mmHg 51%
    14:00 +34°C° 0.1 mm 7 mps 752 mmHg 53%
    15:00 +34°C° 0.1 mm 7 mps 752 mmHg 54%
    16:00 +33°C° 0.1 mm 7 mps 752 mmHg 56%
    17:00 +30°C° 0 mm 7 mps 752 mmHg 53%
    18:00 +28°C° 0 mm 7 mps 752 mmHg 50%
    19:00 +26°C° 0 mm 7 mps 752 mmHg 46%
    20:00 +24°C° 0 mm 7 mps 753 mmHg 49%
    21:00 +22°C° 0 mm 6 mps 753 mmHg 51%
    22:00 +21°C° 0 mm 6 mps 754 mmHg 53%
    23:00 +21°C° 0 mm 5 mps 754 mmHg 56%

    Tomorrow, 28 June, Friday

    Time Temperature Precipitation Wind Pressure Humidity
    00:00 +20°C° 0 mm 5 mps 754 mmHg 58%
    01:00 +19°C° 0 mm 5 mps 754 mmHg 61%
    02:00 +19°C° 0 mm 5 mps 754 mmHg 62%
    03:00 +17°C° 0 mm 5 mps 754 mmHg 64%
    04:00 +18°C° 0 mm 4 mps 754 mmHg 65%
    05:00 +19°C° 0 mm 5 mps 754 mmHg 65%
    06:00 +19°C° 0 mm 5 mps 755 mmHg 65%
    07:00 +20°C° 0 mm 6 mps 755 mmHg 65%
    08:00 +21°C° 0 mm 6 mps 755 mmHg 62%
    09:00 +22°C° 0 mm 6 mps 755 mmHg 59%
    10:00 +24°C° 0 mm 6 mps 755 mmHg 56%
    11:00 +24°C° 0 mm 6 mps 755 mmHg 53%
    12:00 +26°C° 0 mm 6 mps 754 mmHg 51%
    13:00 +26°C° 0 mm 6 mps 754 mmHg 48%
    14:00 +26°C° 0 mm 6 mps 754 mmHg 48%
    15:00 +26°C° 0 mm 6 mps 754 mmHg 47%
    16:00 +26°C° 0 mm 6 mps 754 mmHg 47%
    17:00 +25°C° 0 mm 5 mps 754 mmHg 53%
    18:00 +23°C° 0 mm 4 mps 754 mmHg 59%
    19:00 +22°C° 0 mm 3 mps 754 mmHg 64%
    20:00 +21°C° 0 mm 3 mps 755 mmHg 67%
    21:00 +19°C° 0 mm 3 mps 755 mmHg 69%
    22:00 +18°C° 0 mm 3 mps 755 mmHg 71%
    23:00 +18°C° 0 mm 3 mps 755 mmHg 73%

    Day after tomorrow, 29 June, Saturday

    Time Temperature Precipitation Wind Pressure Humidity
    00:00 +17°C° 0 mm 3 mps 755 mmHg 74%
    01:00 +17°C° 0 mm 3 mps 755 mmHg 76%
    02:00 +17°C° 0 mm 3 mps 755 mmHg 77%
    03:00 +16°C° 0 mm 3 mps 755 mmHg 78%
    04:00 +16°C° 0 mm 3 mps 755 mmHg 79%
    05:00 +18°C° 0 mm 3 mps 755 mmHg 75%
    06:00 +19°C° 0 mm 3 mps 755 mmHg 71%
    07:00 +21°C° 0 mm 4 mps 755 mmHg 67%
    08:00 +22°C° 0 mm 4 mps 755 mmHg 60%
    09:00 +25°C° 0 mm 4 mps 755 mmHg 54%
    10:00 +26°C° 0 mm 3 mps 755 mmHg 47%
    11:00 +27°C° 0 mm 3 mps 755 mmHg 44%
    12:00 +28°C° 0 mm 3 mps 755 mmHg 40%
    13:00 +28°C° 0 mm 3 mps 755 mmHg 37%
    14:00 +28°C° 0 mm 3 mps 755 mmHg 36%
    15:00 +28°C° 0 mm 2 mps 754 mmHg 35%
    16:00 +28°C° 0 mm 2 mps 754 mmHg 35%
    17:00 +27°C° 0 mm 2 mps 754 mmHg 41%
    18:00 +26°C° 0 mm 1 mps 754 mmHg 47%
    19:00 +24°C° 0 mm 1 mps 754 mmHg 53%
    20:00 +23°C° 0 mm 1 mps 754 mmHg 56%
    21:00 +21°C° 0 mm 1 mps 755 mmHg 60%
    22:00 +20°C° 0 mm 1 mps 755 mmHg 63%
    23:00 +19°C° 0 mm 1 mps 755 mmHg 66%

    30 June, Sunday

    Time Temperature Precipitation Wind Pressure Humidity
    00:00 +19°C° 0 mm 1 mps 755 mmHg 69%
    01:00 +17°C° 0 mm 2 mps 755 mmHg 72%
    02:00 +17°C° 0 mm 2 mps 755 mmHg 74%
    03:00 +17°C° 0 mm 2 mps 755 mmHg 76%
    04:00 +16°C° 0 mm 2 mps 755 mmHg 78%
    05:00 +18°C° 0 mm 3 mps 755 mmHg 75%
    06:00 +20°C° 0 mm 3 mps 755 mmHg 72%
    07:00 +22°C° 0 mm 4 mps 755 mmHg 68%
    08:00 +23°C° 0 mm 4 mps 755 mmHg 63%
    09:00 +26°C° 0 mm 5 mps 755 mmHg 58%
    10:00 +28°C° 0 mm 5 mps 755 mmHg 52%
    11:00 +29°C° 0 mm 6 mps 754 mmHg 51%
    12:00 +30°C° 0 mm 6 mps 754 mmHg 49%
    13:00 +32°C° 0 mm 6 mps 754 mmHg 47%
    14:00 +32°C° 0 mm 6 mps 753 mmHg 48%
    15:00 +32°C° 0 mm 6 mps 753 mmHg 48%
    16:00 +32°C° 0 mm 6 mps 753 mmHg 49%
    17:00 +29°C° 0 mm 6 mps 753 mmHg 55%
    18:00 +28°C° 0 mm 5 mps 753 mmHg 61%
    19:00 +27°C° 0 mm 5 mps 753 mmHg 67%
    20:00 +25°C° 0 mm 5 mps 753 mmHg 71%
    21:00 +23°C° 0 mm 5 mps 753 mmHg 76%
    22:00 +22°C° 0 mm 5 mps 753 mmHg 81%
    23:00 +21°C° 0 mm 5 mps 753 mmHg 82%

    1 July, Monday

    Time Temperature Precipitation Wind Pressure Humidity
    00:00 +20°C° 0 mm 5 mps 753 mmHg 83%
    01:00 +20°C° 0 mm 5 mps 753 mmHg 84%
    02:00 +19°C° 0 mm 5 mps 753 mmHg 84%
    03:00 +19°C° 0 mm 4 mps 753 mmHg 84%
    04:00 +19°C° 0 mm 4 mps 752 mmHg 85%
    05:00 +20°C° 0 mm 4 mps 752 mmHg 78%
    06:00 +21°C° 0 mm 5 mps 752 mmHg 72%
    07:00 +23°C° 0 mm 5 mps 752 mmHg 66%
    08:00 +26°C° 0 mm 5 mps 752 mmHg 61%
    09:00 +28°C° 0 mm 5 mps 752 mmHg 56%
    10:00 +30°C° 0 mm 5 mps 752 mmHg 51%
    11:00 +32°C° 0 mm 5 mps 752 mmHg 47%
    12:00 +33°C° 0 mm 5 mps 752 mmHg 44%
    13:00 +34°C° 0 mm 5 mps 751 mmHg 40%
    14:00 +34°C° 0 mm 5 mps 751 mmHg 42%
    15:00 +34°C° 0 mm 5 mps 750 mmHg 43%
    16:00 +34°C° 0 mm 5 mps 750 mmHg 44%
    17:00 +33°C° 0 mm 5 mps 750 mmHg 49%
    18:00 +30°C° 0 mm 5 mps 750 mmHg 54%
    19:00 +28°C° 0 mm 6 mps 750 mmHg 59%
    20:00 +27°C° 0 mm 5 mps 750 mmHg 64%
    21:00 +26°C° 0 mm 4 mps 750 mmHg 68%
    22:00 +25°C° 0 mm 3 mps 751 mmHg 73%
    23:00 +24°C° 0.3 mm 3 mps 751 mmHg 75%

    2 July, Tuesday

    Time Temperature Precipitation Wind Pressure Humidity
    00:00 +24°C° 0.3 mm 3 mps 751 mmHg 78%
    01:00 +24°C° 0.3 mm 3 mps 751 mmHg 81%
    02:00 +22°C° 0 mm 3 mps 751 mmHg 81%
    03:00 +22°C° 0 mm 3 mps 751 mmHg 82%
    04:00 +21°C° 0 mm 4 mps 750 mmHg 83%
    05:00 +22°C° 0.1 mm 4 mps 751 mmHg 80%
    06:00 +23°C° 0.1 mm 4 mps 751 mmHg 78%
    07:00 +25°C° 0.1 mm 4 mps 751 mmHg 75%
    08:00 +26°C° 0.2 mm 5 mps 751 mmHg 69%
    09:00 +27°C° 0.2 mm 5 mps 751 mmHg 62%
    10:00 +29°C° 0.2 mm 5 mps 752 mmHg 56%
    11:00 +29°C° 0.2 mm 5 mps 751 mmHg 53%
    12:00 +30°C° 0.2 mm 5 mps 751 mmHg 49%
    13:00 +32°C° 0.2 mm 5 mps 751 mmHg 46%
    14:00 +29°C° 0.3 mm 4 mps 751 mmHg 55%
    15:00 +28°C° 0.3 mm 3 mps 751 mmHg 63%
    16:00 +26°C° 0.3 mm 2 mps 751 mmHg 72%
    17:00 +25°C° 0.1 mm 2 mps 751 mmHg 74%
    18:00 +25°C° 0.1 mm 2 mps 751 mmHg 76%
    19:00 +25°C° 0.1 mm 2 mps 751 mmHg 77%
    20:00 +24°C° 0 mm 2 mps 751 mmHg 77%
    21:00 +22°C° 0 mm 3 mps 752 mmHg 77%
    22:00 +21°C° 0 mm 3 mps 752 mmHg 77%
    23:00 +20°C° 0 mm 3 mps 752 mmHg 77%
    Show more